| time (UTC) | temp C | wind direction | speed KPH | gust KPH | rain 1hr cm | rain 24hr cm | rain mn cm | humidity % | barometer mb |
| 20260503013319 | 16 | 150 | 3.2 | 3.2 | 0.00 | 0.00 | 0.00 | 56 | 1017.9 |
| 20260503012816 | 16 | 145 | 0.0 | 3.2 | 0.00 | 0.00 | 0.00 | 57 | 1017.9 |
| 20260503012314 | 16 | 140 | 3.2 | 3.2 | 0.00 | 0.00 | 0.00 | 56 | 1017.9 |
| 20260503011810 | 16 | 174 | 1.6 | 3.2 | 0.00 | 0.00 | 0.00 | 56 | 1017.8 |
| 20260503011307 | 17 | 160 | 1.6 | 3.2 | 0.00 | 0.00 | 0.00 | 54 | 1018.0 |
| 20260503010804 | 17 | 171 | 4.8 | 6.4 | 0.00 | 0.00 | 0.00 | 53 | 1017.7 |
| 20260503010301 | 17 | 111 | 0.0 | 4.8 | 0.00 | 0.00 | 0.00 | 52 | 1018.0 |
| 20260503005758 | 17 | 144 | 4.8 | 8.0 | 0.00 | 0.00 | 0.00 | 52 | 1017.9 |
| 20260503005255 | 17 | 106 | 1.6 | 4.8 | 0.00 | 0.00 | 0.00 | 51 | 1018.0 |
| 20260503004751 | 18 | 150 | 3.2 | 4.8 | 0.00 | 0.00 | 0.00 | 50 | 1017.9 |
| 20260503004249 | 18 | 144 | 3.2 | 8.0 | 0.00 | 0.00 | 0.00 | 50 | 1017.8 |
| 20260503003746 | 18 | 139 | 3.2 | 6.4 | 0.00 | 0.00 | 0.00 | 48 | 1017.6 |
| 20260503003243 | 18 | 163 | 9.7 | 11.3 | 0.00 | 0.00 | 0.00 | 46 | 1017.9 |
| 20260503002740 | 18 | 153 | 8.0 | 11.3 | 0.00 | 0.00 | 0.00 | 47 | 1017.7 |
| 20260503002237 | 18 | 161 | 11.3 | 14.5 | 0.00 | 0.00 | 0.00 | 47 | 1017.6 |
| 20260503001733 | 18 | 116 | 0.0 | 11.3 | 0.00 | 0.00 | 0.00 | 47 | 1017.7 |
| 20260503001229 | 18 | 188 | 4.8 | 9.7 | 0.00 | 0.00 | 0.00 | 47 | 1017.7 |
| 20260503000728 | 18 | 176 | 3.2 | 9.7 | 0.00 | 0.00 | 0.00 | 47 | 1017.7 |
| 20260503000226 | 18 | 163 | 4.8 | 9.7 | 0.00 | 0.00 | 0.00 | 49 | 1017.8 |
| 20260502235721 | 18 | 190 | 8.0 | 11.3 | 0.00 | 0.00 | 0.00 | 47 | 1017.7 |
| 20260502235220 | 18 | 215 | 4.8 | 14.5 | 0.00 | 0.00 | 0.00 | 46 | 1017.7 |
| 20260502234715 | 19 | 180 | 8.0 | 14.5 | 0.00 | 0.00 | 0.00 | 46 | 1017.8 |
| 20260502234213 | 19 | 128 | 3.2 | 4.8 | 0.00 | 0.00 | 0.00 | 45 | 1017.8 |
| 20260502233708 | 19 | 180 | 6.4 | 14.5 | 0.00 | 0.00 | 0.00 | 46 | 1017.7 |
| 20260502233205 | 19 | 160 | 4.8 | 8.0 | 0.00 | 0.00 | 0.00 | 46 | 1017.7 |
| 20260502232701 | 18 | 159 | 12.9 | 20.9 | 0.00 | 0.00 | 0.00 | 46 | 1017.9 |
| 20260502232159 | 20 | 157 | 14.5 | 20.9 | 0.00 | 0.00 | 0.00 | 45 | 1017.7 |
| 20260502231655 | 20 | 99 | 0.0 | 11.3 | 0.00 | 0.00 | 0.00 | 46 | 1017.8 |
| 20260502231153 | 20 | 195 | 3.2 | 6.4 | 0.00 | 0.00 | 0.00 | 45 | 1017.8 |
| 20260502230652 | 20 | 147 | 4.8 | 12.9 | 0.00 | 0.00 | 0.00 | 45 | 1017.8 |
| 20260502230150 | 20 | 57 | 0.0 | 14.5 | 0.00 | 0.00 | 0.00 | 45 | 1017.6 |
| 20260502225645 | 20 | 158 | 8.0 | 11.3 | 0.00 | 0.00 | 0.00 | 45 | 1017.7 |
| 20260502225143 | 19 | 180 | 6.4 | 12.9 | 0.00 | 0.00 | 0.00 | 45 | 1017.6 |
| 20260502224638 | 20 | 143 | 4.8 | 12.9 | 0.00 | 0.00 | 0.00 | 45 | 1017.8 |
| 20260502224135 | 19 | 163 | 6.4 | 9.7 | 0.00 | 0.00 | 0.00 | 45 | 1017.6 |
| 20260502223633 | 19 | 169 | 11.3 | 14.5 | 0.00 | 0.00 | 0.00 | 45 | 1017.8 |
| 20260502223131 | 18 | 168 | 8.0 | 17.7 | 0.00 | 0.00 | 0.00 | 45 | 1017.7 |
| 20260502222628 | 19 | 173 | 11.3 | 12.9 | 0.00 | 0.00 | 0.00 | 45 | 1018.0 |
| 20260502222125 | 19 | 210 | 3.2 | 12.9 | 0.00 | 0.00 | 0.00 | 45 | 1017.9 |
| 20260502221620 | 19 | 150 | 3.2 | 11.3 | 0.00 | 0.00 | 0.00 | 45 | 1017.9 |
| 20260502221118 | 20 | 257 | 1.6 | 6.4 | 0.00 | 0.00 | 0.00 | 46 | 1017.9 |
| 20260502220614 | 18 | 229 | 12.9 | 12.9 | 0.00 | 0.00 | 0.00 | 46 | 1018.0 |
| 20260502220110 | 20 | 75 | 4.8 | 9.7 | 0.00 | 0.00 | 0.00 | 43 | 1018.1 |
| 20260502215608 | 18 | 173 | 8.0 | 11.3 | 0.00 | 0.00 | 0.00 | 44 | 1018.2 |
| 20260502215104 | 19 | 183 | 8.0 | 9.7 | 0.00 | 0.00 | 0.00 | 45 | 1018.3 |
| 20260502214601 | 18 | 230 | 6.4 | 11.3 | 0.00 | 0.00 | 0.00 | 43 | 1018.5 |
| 20260502214059 | 18 | 114 | 8.0 | 17.7 | 0.00 | 0.00 | 0.00 | 45 | 1018.5 |
| 20260502213555 | 19 | 109 | 4.8 | 9.7 | 0.00 | 0.00 | 0.00 | 44 | 1018.5 |
| 20260502213053 | 17 | 277 | 8.0 | 11.3 | 0.00 | 0.00 | 0.00 | 46 | 1018.8 |
| 20260502212552 | 18 | 196 | 9.7 | 9.7 | 0.00 | 0.00 | 0.00 | 45 | 1019.0 |
| 20260502212049 | 17 | 97 | 1.6 | 11.3 | 0.00 | 0.00 | 0.00 | 47 | 1019.1 |
| 20260502211544 | 18 | 151 | 9.7 | 16.1 | 0.00 | 0.00 | 0.00 | 47 | 1019.2 |
| 20260502211042 | 18 | 172 | 3.2 | 14.5 | 0.00 | 0.00 | 0.00 | 47 | 1019.4 |
| 20260502210539 | 17 | 236 | 8.0 | 11.3 | 0.00 | 0.00 | 0.00 | 48 | 1019.4 |
| 20260502210036 | 18 | 160 | 8.0 | 14.5 | 0.00 | 0.00 | 0.00 | 49 | 1019.4 |
| 20260502205532 | 18 | 165 | 3.2 | 12.9 | 0.00 | 0.00 | 0.00 | 47 | 1019.5 |
| 20260502205030 | 18 | 157 | 0.0 | 6.4 | 0.00 | 0.00 | 0.00 | 48 | 1019.5 |
| 20260502204526 | 17 | 150 | 6.4 | 8.0 | 0.00 | 0.00 | 0.00 | 47 | 1019.7 |
| 20260502204025 | 17 | 160 | 4.8 | 11.3 | 0.00 | 0.00 | 0.00 | 47 | 1020.0 |
| 20260502203521 | 17 | 163 | 9.7 | 11.3 | 0.00 | 0.00 | 0.00 | 49 | 1020.0 |
| 20260502203018 | 18 | 166 | 12.9 | 16.1 | 0.00 | 0.00 | 0.00 | 47 | 1020.0 |
| 20260502202514 | 18 | 180 | 0.0 | 8.0 | 0.00 | 0.00 | 0.00 | 47 | 1019.8 |
| 20260502202013 | 17 | 199 | 6.4 | 11.3 | 0.00 | 0.00 | 0.00 | 48 | 1019.7 |
| 20260502201508 | 17 | 149 | 9.7 | 14.5 | 0.00 | 0.00 | 0.00 | 48 | 1020.1 |
| 20260502201004 | 17 | 199 | 3.2 | 6.4 | 0.00 | 0.00 | 0.00 | 48 | 1020.1 |
| 20260502200500 | 18 | 190 | 4.8 | 19.3 | 0.00 | 0.00 | 0.00 | 46 | 1020.2 |
| 20260502195959 | 18 | 192 | 8.0 | 20.9 | 0.00 | 0.00 | 0.00 | 46 | 1020.0 |
| 20260502195456 | 17 | 206 | 6.4 | 12.9 | 0.00 | 0.00 | 0.00 | 48 | 1020.2 |
| 20260502194951 | 17 | 229 | 3.2 | 9.7 | 0.00 | 0.00 | 0.00 | 49 | 1020.2 |
| 20260502194449 | 18 | 237 | 3.2 | 6.4 | 0.00 | 0.00 | 0.00 | 48 | 1020.2 |
| 20260502193944 | 18 | 209 | 1.6 | 8.0 | 0.00 | 0.00 | 0.00 | 47 | 1020.3 |
| 20260502193442 | 17 | 167 | 11.3 | 14.5 | 0.00 | 0.00 | 0.00 | 48 | 1020.3 |
| 20260502192938 | 17 | 186 | 6.4 | 14.5 | 0.00 | 0.00 | 0.00 | 46 | 1020.3 |
| 20260502192435 | 17 | 249 | 6.4 | 6.4 | 0.00 | 0.00 | 0.00 | 46 | 1020.4 |
| 20260502191932 | 17 | 197 | 6.4 | 11.3 | 0.00 | 0.00 | 0.00 | 47 | 1020.4 |
| 20260502191429 | 17 | 40 | 0.0 | 8.0 | 0.00 | 0.00 | 0.00 | 50 | 1020.8 |
| 20260502190927 | 17 | 238 | 8.0 | 12.9 | 0.00 | 0.00 | 0.00 | 50 | 1020.6 |
| 20260502190424 | 17 | 174 | 11.3 | 12.9 | 0.00 | 0.00 | 0.00 | 49 | 1020.6 |
| 20260502185920 | 17 | 173 | 0.0 | 8.0 | 0.00 | 0.00 | 0.00 | 50 | 1020.4 |
| 20260502185415 | 17 | 261 | 4.8 | 12.9 | 0.00 | 0.00 | 0.00 | 48 | 1020.6 |
| 20260502184913 | 17 | 227 | 4.8 | 9.7 | 0.00 | 0.00 | 0.00 | 48 | 1020.9 |
| 20260502184408 | 17 | 199 | 3.2 | 19.3 | 0.00 | 0.00 | 0.00 | 49 | 1020.9 |
| 20260502183905 | 17 | 252 | 6.4 | 11.3 | 0.00 | 0.00 | 0.00 | 48 | 1021.2 |
| 20260502183401 | 17 | 166 | 6.4 | 6.4 | 0.00 | 0.00 | 0.00 | 49 | 1021.0 |
| 20260502182856 | 16 | 230 | 8.0 | 11.3 | 0.00 | 0.00 | 0.00 | 48 | 1021.0 |
| 20260502182352 | 16 | 233 | 6.4 | 11.3 | 0.00 | 0.00 | 0.00 | 51 | 1021.4 |
| 20260502181848 | 16 | 199 | 0.0 | 19.3 | 0.00 | 0.00 | 0.00 | 48 | 1021.3 |
| 20260502181348 | 16 | 208 | 8.0 | 12.9 | 0.00 | 0.00 | 0.00 | 50 | 1021.4 |
| 20260502180845 | 16 | 319 | 3.2 | 11.3 | 0.00 | 0.00 | 0.00 | 51 | 1021.3 |
| 20260502180342 | 16 | 239 | 6.4 | 8.0 | 0.00 | 0.00 | 0.00 | 49 | 1021.5 |
| 20260502170300 | 16 | 201 | 3.2 | 9.7 | 0.00 | 0.00 | 0.00 | 44 | 1021.8 |
| 20260502164243 | 16 | 279 | 0.0 | 4.8 | 0.00 | 0.00 | 0.00 | 54 | 1022.0 |
| 20260502163738 | 15 | 270 | 0.0 | 4.8 | 0.00 | 0.00 | 0.00 | 59 | 1022.1 |
| 20260502163235 | 15 | 194 | 4.8 | 4.8 | 0.00 | 0.00 | 0.00 | 59 | 1021.8 |
| 20260502162732 | 15 | 297 | 4.8 | 8.0 | 0.00 | 0.00 | 0.00 | 60 | 1021.8 |
| 20260502162229 | 14 | 66 | 4.8 | 6.4 | 0.00 | 0.00 | 0.00 | 63 | 1022.0 |
| 20260502161726 | 15 | 345 | 4.8 | 8.0 | 0.00 | 0.00 | 0.00 | 65 | 1022.0 |
| 20260502161222 | 15 | 4 | 0.0 | 4.8 | 0.00 | 0.00 | 0.00 | 64 | 1021.8 |
| 20260502160721 | 15 | 90 | 1.6 | 6.4 | 0.00 | 0.00 | 0.00 | 63 | 1022.0 |
| 20260502160219 | 15 | 270 | 1.6 | 4.8 | 0.00 | 0.00 | 0.00 | 65 | 1021.9 |
| 20260502152143 | 13 | 62 | 4.8 | 6.4 | 0.00 | 0.00 | 0.00 | 73 | 1022.0 |
| 20260502151641 | 13 | 37 | 6.4 | 6.4 | 0.00 | 0.00 | 0.00 | 72 | 1021.8 |
| 20260502151138 | 13 | 144 | 0.0 | 3.2 | 0.00 | 0.00 | 0.00 | 71 | 1021.8 |
| 20260502150635 | 12 | 109 | 0.0 | 8.0 | 0.00 | 0.00 | 0.00 | 75 | 1021.9 |
| 20260502150131 | 12 | 64 | 4.8 | 4.8 | 0.00 | 0.00 | 0.00 | 75 | 1022.0 |
| 20260502130520 | 10 | 19 | 4.8 | 4.8 | 0.00 | 0.00 | 0.00 | 92 | 1021.3 |
| 20260502123503 | 10 | 36 | 6.4 | 6.4 | 0.00 | 0.00 | 0.00 | 92 | 1020.7 |
| 20260502123000 | 10 | 31 | 4.8 | 8.0 | 0.00 | 0.00 | 0.00 | 92 | 1020.8 |
| 20260502122456 | 10 | 23 | 1.6 | 11.3 | 0.00 | 0.00 | 0.00 | 92 | 1020.6 |
| 20260502121954 | 9 | 32 | 4.8 | 8.0 | 0.00 | 0.00 | 0.00 | 92 | 1020.5 |
| 20260502121451 | 9 | 17 | 3.2 | 8.0 | 0.00 | 0.00 | 0.00 | 92 | 1020.4 |
| 20260502120948 | 10 | 39 | 3.2 | 8.0 | 0.00 | 0.00 | 0.00 | 92 | 1020.5 |
| 20260502120444 | 10 | 4 | 6.4 | 9.7 | 0.00 | 0.00 | 0.00 | 92 | 1020.4 |
| 20260502115439 | 10 | 0 | 6.4 | 6.4 | 0.00 | 0.00 | 0.00 | 92 | 1020.4 |
| 20260502114935 | 10 | 6 | 6.4 | 6.4 | 0.00 | 0.00 | 0.00 | 92 | 1020.2 |
| 20260502114432 | 10 | 0 | 3.2 | 8.0 | 0.00 | 0.00 | 0.00 | 92 | 1020.3 |
| 20260502113929 | 9 | 351 | 3.2 | 6.4 | 0.00 | 0.00 | 0.00 | 92 | 1020.4 |
| 20260502113426 | 9 | 337 | 1.6 | 8.0 | 0.00 | 0.00 | 0.00 | 92 | 1020.3 |
| 20260502112925 | 10 | 330 | 3.2 | 6.4 | 0.00 | 0.00 | 0.00 | 91 | 1020.1 |
| 20260502112422 | 9 | 32 | 1.6 | 3.2 | 0.00 | 0.00 | 0.00 | 91 | 1020.2 |
| 20260502111920 | 9 | 0 | 4.8 | 4.8 | 0.00 | 0.00 | 0.00 | 92 | 1020.3 |
| 20260502111416 | 9 | 350 | 3.2 | 4.8 | 0.00 | 0.00 | 0.00 | 91 | 1020.3 |
| 20260502110914 | 10 | 0 | 0.0 | 4.8 | 0.00 | 0.00 | 0.00 | 92 | 1020.0 |
| 20260502110412 | 9 | 342 | 3.2 | 4.8 | 0.00 | 0.00 | 0.00 | 92 | 1020.1 |
| 20260502105909 | 9 | 90 | 0.0 | 0.0 | 0.00 | 0.00 | 0.00 | 91 | 1020.2 |
| 20260502105406 | 9 | 0 | 0.0 | 3.2 | 0.00 | 0.00 | 0.00 | 91 | 1020.1 |
| 20260502104904 | 9 | 72 | 0.0 | 0.0 | 0.00 | 0.00 | 0.00 | 92 | 1020.0 |
| 20260502104401 | 9 | 345 | 0.0 | 3.2 | 0.00 | 0.00 | 0.00 | 91 | 1019.8 |
| 20260502103858 | 9 | 345 | 3.2 | 4.8 | 0.00 | 0.00 | 0.00 | 92 | 1019.8 |
| 20260502103355 | 9 | 346 | 3.2 | 6.4 | 0.00 | 0.00 | 0.00 | 92 | 1019.7 |
| 20260502102852 | 9 | 339 | 4.8 | 8.0 | 0.00 | 0.00 | 0.00 | 92 | 1019.8 |
| 20260502102349 | 9 | 353 | 3.2 | 8.0 | 0.00 | 0.00 | 0.00 | 92 | 1020.0 |
| 20260502101846 | 9 | 0 | 3.2 | 4.8 | 0.00 | 0.00 | 0.00 | 92 | 1019.8 |
| 20260502101345 | 9 | 8 | 0.0 | 3.2 | 0.00 | 0.00 | 0.00 | 92 | 1020.0 |
| 20260502100843 | 9 | 29 | 1.6 | 4.8 | 0.00 | 0.00 | 0.00 | 92 | 1019.8 |
| 20260502100342 | 9 | 20 | 4.8 | 6.4 | 0.00 | 0.00 | 0.00 | 92 | 1020.1 |
| 20260502091315 | 9 | 270 | 0.0 | 0.0 | 0.00 | 0.00 | 0.00 | 92 | 1020.3 |
| 20260502090813 | 9 | 270 | 0.0 | 3.2 | 0.00 | 0.00 | 0.00 | 92 | 1020.2 |
| 20260502090309 | 10 | 90 | 0.0 | 0.0 | 0.00 | 0.00 | 0.00 | 92 | 1020.1 |
| 20260502071205 | 9 | 81 | 0.0 | 0.0 | 0.00 | 0.00 | 0.00 | 90 | 1020.5 |
| 20260502070703 | 9 | 74 | 0.0 | 0.0 | 0.00 | 0.00 | 0.00 | 90 | 1020.3 |
| 20260502070200 | 9 | 106 | 0.0 | 0.0 | 0.00 | 0.00 | 0.00 | 90 | 1020.4 |
| 20260502065659 | 10 | 111 | 0.0 | 1.6 | 0.00 | 0.00 | 0.00 | 90 | 1020.6 |
| 20260502065156 | 9 | 14 | 0.0 | 0.0 | 0.00 | 0.00 | 0.00 | 90 | 1020.6 |
| 20260502064655 | 10 | 354 | 0.0 | 0.0 | 0.00 | 0.00 | 0.00 | 90 | 1020.7 |
| 20260502064151 | 10 | 340 | 0.0 | 1.6 | 0.00 | 0.00 | 0.00 | 90 | 1020.5 |
| 20260502063649 | 10 | 8 | 0.0 | 0.0 | 0.00 | 0.00 | 0.00 | 89 | 1020.4 |
| 20260502063147 | 10 | 8 | 0.0 | 0.0 | 0.00 | 0.00 | 0.00 | 89 | 1020.5 |
| 20260502062643 | 10 | 8 | 0.0 | 0.0 | 0.00 | 0.00 | 0.00 | 89 | 1020.4 |
| 20260502062141 | 9 | 82 | 0.0 | 1.6 | 0.00 | 0.00 | 0.00 | 89 | 1020.5 |
| 20260502061639 | 10 | 12 | 0.0 | 0.0 | 0.00 | 0.00 | 0.00 | 89 | 1020.4 |
| 20260502061137 | 10 | 12 | 0.0 | 0.0 | 0.00 | 0.00 | 0.00 | 89 | 1020.7 |
| 20260502060636 | 10 | 12 | 0.0 | 0.0 | 0.00 | 0.00 | 0.00 | 89 | 1020.7 |
| 20260502060133 | 10 | 12 | 0.0 | 3.2 | 0.00 | 0.00 | 0.00 | 89 | 1020.8 |
| 20260502055631 | 10 | 5 | 0.0 | 0.0 | 0.00 | 3.61 | 3.61 | 89 | 1020.5 |
| 20260502055129 | 10 | 5 | 0.0 | 1.6 | 0.00 | 3.61 | 3.61 | 89 | 1020.4 |
| 20260502054628 | 10 | 19 | 3.2 | 3.2 | 0.00 | 3.61 | 3.61 | 89 | 1020.3 |
| 20260502054125 | 10 | 29 | 3.2 | 3.2 | 0.00 | 3.61 | 3.61 | 89 | 1020.4 |
| 20260502053622 | 10 | 35 | 1.6 | 3.2 | 0.00 | 3.61 | 3.61 | 89 | 1020.1 |
| 20260502053119 | 10 | 81 | 0.0 | 3.2 | 0.00 | 3.61 | 3.61 | 89 | 1020.1 |
| 20260502052617 | 10 | 15 | 3.2 | 4.8 | 0.00 | 3.61 | 3.61 | 88 | 1020.2 |
| 20260502052115 | 10 | 6 | 0.0 | 3.2 | 0.00 | 3.61 | 3.61 | 88 | 1020.3 |
| 20260502051613 | 10 | 5 | 1.6 | 3.2 | 0.00 | 3.61 | 3.61 | 88 | 1020.2 |
| 20260502051111 | 10 | 0 | 1.6 | 3.2 | 0.00 | 3.61 | 3.61 | 88 | 1020.1 |
| 20260502050607 | 10 | 331 | 0.0 | 1.6 | 0.00 | 3.61 | 3.61 | 88 | 1020.1 |
| 20260502050104 | 10 | 7 | 3.2 | 3.2 | 0.00 | 3.61 | 3.61 | 87 | 1020.2 |
| 20260502045600 | 10 | 356 | 3.2 | 4.8 | 0.00 | 3.61 | 3.61 | 86 | 1020.1 |
| 20260502045058 | 10 | 14 | 0.0 | 1.6 | 0.00 | 3.61 | 3.61 | 86 | 1020.2 |
| 20260502044554 | 10 | 0 | 3.2 | 4.8 | 0.00 | 3.61 | 3.61 | 86 | 1020.1 |
| 20260502044051 | 10 | 353 | 1.6 | 3.2 | 0.00 | 3.61 | 3.61 | 85 | 1020.0 |
| 20260502043548 | 10 | 15 | 0.0 | 0.0 | 0.00 | 3.61 | 3.61 | 85 | 1019.8 |
| 20260502043044 | 10 | 15 | 0.0 | 0.0 | 0.00 | 3.61 | 3.61 | 85 | 1020.0 |
| 20260502042539 | 10 | 0 | 0.0 | 3.2 | 0.00 | 3.61 | 3.61 | 85 | 1020.0 |
| 20260502042037 | 10 | 8 | 0.0 | 1.6 | 0.00 | 3.61 | 3.61 | 85 | 1019.7 |
| 20260502041535 | 10 | 14 | 0.0 | 1.6 | 0.00 | 3.61 | 3.61 | 84 | 1019.6 |
| 20260502041031 | 10 | 352 | 0.0 | 0.0 | 0.00 | 3.61 | 3.61 | 84 | 1019.5 |
| 20260502040528 | 10 | 352 | 0.0 | 0.0 | 0.00 | 3.61 | 3.61 | 84 | 1019.5 |
| 20260502040025 | 10 | 14 | 0.0 | 3.2 | 0.00 | 3.61 | 3.61 | 84 | 1019.6 |
| 20260502035521 | 10 | 54 | 0.0 | 3.2 | 0.00 | 3.61 | 3.61 | 84 | 1019.5 |
| 20260502035019 | 10 | 82 | 0.0 | 0.0 | 0.00 | 3.61 | 3.61 | 84 | 1019.4 |
| 20260502034516 | 10 | 99 | 0.0 | 0.0 | 0.00 | 3.61 | 3.61 | 84 | 1019.5 |
| 20260502034015 | 10 | 99 | 0.0 | 4.8 | 0.00 | 3.61 | 3.61 | 84 | 1019.6 |
| 20260502033513 | 10 | 74 | 0.0 | 1.6 | 0.00 | 3.61 | 3.61 | 84 | 1019.5 |
| 20260502033010 | 10 | 65 | 3.2 | 3.2 | 0.00 | 3.61 | 3.61 | 84 | 1019.4 |
| 20260502032505 | 10 | 37 | 4.8 | 4.8 | 0.00 | 3.61 | 3.61 | 84 | 1019.3 |
| 20260502032003 | 10 | 74 | 1.6 | 6.4 | 0.00 | 3.61 | 3.61 | 85 | 1019.2 |
| 20260502031500 | 10 | 111 | 0.0 | 4.8 | 0.00 | 3.61 | 3.61 | 85 | 1019.0 |
| 20260502030958 | 10 | 96 | 4.8 | 4.8 | 0.00 | 3.61 | 3.61 | 85 | 1019.2 |
| 20260502030456 | 11 | 75 | 1.6 | 3.2 | 0.00 | 3.61 | 3.61 | 85 | 1019.3 |
| 20260502025954 | 10 | 75 | 3.2 | 4.8 | 0.00 | 3.61 | 3.61 | 85 | 1019.2 |
| 20260502025451 | 10 | 63 | 3.2 | 3.2 | 0.00 | 3.61 | 3.61 | 85 | 1019.1 |
| 20260502024949 | 11 | 98 | 1.6 | 4.8 | 0.00 | 3.61 | 3.61 | 85 | 1019.0 |
| 20260502024447 | 11 | 95 | 3.2 | 3.2 | 0.00 | 3.61 | 3.61 | 85 | 1018.9 |
| 20260502023945 | 11 | 82 | 0.0 | 1.6 | 0.00 | 3.61 | 3.61 | 85 | 1019.0 |
| 20260502023442 | 11 | 90 | 0.0 | 3.2 | 0.00 | 3.61 | 3.61 | 85 | 1018.6 |
| 20260502022939 | 10 | 71 | 4.8 | 6.4 | 0.00 | 3.61 | 3.61 | 85 | 1018.5 |
| 20260502022435 | 11 | 69 | 0.0 | 4.8 | 0.00 | 3.61 | 3.61 | 86 | 1018.6 |
| 20260502021932 | 11 | 45 | 3.2 | 4.8 | 0.00 | 3.61 | 3.61 | 86 | 1018.8 |
| 20260502021430 | 11 | 60 | 1.6 | 3.2 | 0.00 | 3.61 | 3.61 | 86 | 1018.4 |
| 20260502020927 | 11 | 81 | 0.0 | 3.2 | 0.00 | 3.61 | 3.61 | 86 | 1018.3 |
| 20260502020425 | 11 | 90 | 0.0 | 4.8 | 0.00 | 3.61 | 3.61 | 86 | 1018.3 |
| 20260502015921 | 11 | 90 | 1.6 | 3.2 | 0.00 | 3.61 | 3.61 | 86 | 1018.3 |
| 20260502015419 | 11 | 101 | 4.8 | 4.8 | 0.00 | 3.61 | 3.61 | 86 | 1018.1 |
| 20260502014915 | 11 | 81 | 0.0 | 1.6 | 0.00 | 3.61 | 3.61 | 86 | 1018.0 |
| 20260502014413 | 11 | 81 | 0.0 | 1.6 | 0.00 | 3.61 | 3.61 | 86 | 1017.9 |
| 20260502013909 | 11 | 96 | 3.2 | 4.8 | 0.00 | 3.61 | 3.61 | 86 | 1017.8 |